Wind_Speed
19 26 29 27 23 20 17 16 16 17 21 21 23 23 23 22 21 19 19 21 21 20 19 18 18 17 16 17 19 19 18 17 17 16 19 16 17 17 14 15 13 12 12
25 27 30 28 24 20 19 18 17 19 23 24 25 24 24 23 20 19 19 20 21 20 18 18 18 17 17 17 16 16 16 16 15 14 15 14 14 13 13 16 16 14 14
27 27 28 28 25 21 20 22 19 21 24 25 26 26 25 24 21 21 20 20 20 18 18 17 17 17 16 16 13 13 13 13 13 15 17 12 12 11 11 13 14 14 14
27 27 27 27 25 23 22 22 19 19 23 26 26 26 26 24 22 21 20 20 19 19 17 16 15 16 15 14 12 12 14 14 15 16 12 12 12 11 10 9 11 12 13
27 27 26 28 26 23 24 25 21 18 22 25 27 27 26 24 22 21 20 22 20 18 17 15 15 15 15 13 13 13 14 14 15 12 12 11 10 10 9 9 8 8 10
27 26 27 29 27 25 25 25 23 20 20 22 24 27 26 24 21 21 21 22 20 18 16 16 17 15 13 13 13 13 12 13 12 10 11 12 10 10 9 9 9 8 8
26 26 26 29 27 26 26 25 24 22 21 23 24 26 24 22 21 21 22 21 20 18 15 15 16 14 12 10 10 10 11 12 9 9 9 9 9 9 8 8 8 8 8
26 25 26 29 28 28 27 25 23 22 23 23 24 24 21 20 19 20 20 20 19 17 15 15 14 13 11 9 8 7 7 9 7 7 7 7 8 7 7 7 8 8 8
25 25 25 26 25 29 28 26 21 21 23 24 23 20 18 17 18 19 19 19 17 16 15 14 12 11 10 8 7 6 5 6 5 5 5 5 6 5 6 6 7 7 8
22 23 25 25 24 24 24 25 20 20 22 24 21 20 19 19 18 17 17 16 16 16 15 13 11 10 8 7 6 5 5 4 2 2 2 3 5 3 4 4 5 6 7
22 22 21 23 24 25 25 23 21 20 23 24 22 21 20 17 16 16 13 14 15 14 13 11 9 8 7 6 5 4 4 2 1 2 2 2 2 2 2 2 2 3 4
26 24 23 22 23 26 25 25 21 19 19 19 20 20 18 17 15 13 14 13 13 12 11 9 8 6 4 4 3 4 3 3 2 2 3 3 2 2 3 2 2 2 2
18 24 21 22 24 27 23 25 22 20 18 18 19 19 16 16 14 13 11 10 9 9 6 6 5 5 5 5 4 4 4 4 3 3 3 3 3 3 4 6 5 5 5
13 31 23 19 23 25 23 22 21 20 19 17 17 17 16 15 14 13 12 11 9 8 8 7 6 6 5 5 5 4 4 4 4 3 4 4 3 4 5 6 8 8 9
17 25 24 22 22 24 23 20 20 20 19 17 16 15 14 13 13 12 10 9 9 8 7 7 7 7 6 6 6 5 6 6 5 5 5 6 5 6 7 10 11 12 12
31 19 28 21 18 21 24 23 22 20 18 16 14 15 14 12 12 11 10 10 8 7 7 8 7 7 7 7 7 7 7 6 6 6 5 6 8 8 9 12 12 14 15
21 24 26 22 18 18 17 19 19 22 22 19 17 17 15 14 13 12 11 9 8 8 7 7 7 7 7 7 8 7 7 7 6 7 7 7 9 12 14 15 16 15 16
21 20 30 27 21 21 16 15 14 16 18 21 19 16 16 14 13 12 11 9 9 8 8 8 8 7 8 8 8 7 7 7 8 9 9 10 11 12 14 17 19 17 16
27 21 20 16 21 19 16 15 19 16 15 15 18 18 17 14 14 13 12 10 9 9 9 10 9 10 8 8 8 7 7 7 11 10 11 11 12 14 15 16 19 19 19
30 33 26 22 19 23 18 16 14 17 13 11 12 12 12 12 12 12 10 11 11 11 10 11 11 10 10 9 8 8 9 10 10 12 11 11 12 10 10 11 10 11 14
30 37 40 30 25 22 16 15 16 14 12 12 10 10 9 11 12 12 14 9 11 12 13 13 12 13 12 11 8 11 11 9 11 11 8 8 6 8 10 9 8 8 8
27 25 30 28 22 21 14 10 8 11 12 14 11 11 10 9 10 12 11 11 10 16 17 11 12 13 13 10 8 6 4 5 1 0 6 7 10 7 7 8 7 6 5
30 16 16 25 26 19 18 15 13 19 15 11 14 11 11 8 5 10 12 6 6 9 11 9 8 8 12 6 2 2 3 2 9 7 6 9 8 7 6 5 6 6 5
22 21 21 15 21 20 16 22 24 20 13 4 5 13 13 12 12 13 11 14 10 6 11 11 8 6 2 2 4 1 4 5 3 5 3 7 6 8 7 6 6 6 6
24 25 26 21 20 20 19 22 21 18 16 19 23 19 17 22 21 21 19 20 16 20 20 18 18 16 13 10 8 7 6 10 12 7 7 9 8 8 7 7 8 7 7
16 13 18 23 30 29 31 32 35 29 24 25 31 24 26 26 28 27 25 23 24 29 25 25 23 20 17 17 16 13 12 6 5 9 7 11 11 12 6 10 8 7 8
Wind_Direction
172 170 171 166 160 158 157 156 154 158 159 156 151 150 151 146 140 141 132 130 125 122 118 115 114 115 108 103 95 91 92 98 99 95 97 94 78 80 71 71 69 67 67
166 168 171 165 160 158 154 154 156 158 158 160 156 152 149 144 140 134 133 132 129 127 124 118 116 116 112 104 99 94 95 97 97 96 86 79 89 81 78 86 74 70 66
165 167 169 166 162 161 157 155 158 158 161 161 159 156 150 145 140 137 135 134 133 129 129 120 116 117 116 112 104 98 96 97 98 96 86 84 82 80 87 101 83 65 68
165 167 168 168 165 163 160 157 154 155 162 164 161 157 151 144 141 137 135 135 135 135 132 125 125 124 119 111 102 97 97 97 96 82 86 85 82 84 81 78 89 71 67
168 167 168 169 167 164 161 160 155 147 159 165 164 157 145 142 139 138 138 138 141 138 131 128 119 122 119 113 103 101 98 96 86 82 83 85 82 80 82 83 76 78 87
170 170 173 170 169 167 161 160 157 152 147 157 156 151 145 142 139 139 144 144 143 141 133 129 128 131 127 114 107 103 98 94 83 83 81 77 80 80 78 77 78 76 87
175 172 171 172 170 169 164 164 161 156 148 151 150 147 144 143 141 142 147 148 147 140 133 130 131 132 125 117 111 105 99 93 88 83 83 81 79 79 80 80 75 73 69
179 175 174 175 171 169 167 165 164 159 158 148 147 143 144 147 147 144 146 149 148 142 136 133 131 131 130 128 121 110 101 93 80 84 83 80 80 75 72 71 72 68 66
182 179 176 172 170 168 165 166 165 159 162 161 150 146 149 153 149 146 147 149 147 149 147 145 142 139 135 130 132 125 117 107 97 96 91 89 88 78 68 65 64 61 58
191 185 178 171 165 165 164 165 160 155 154 154 155 152 151 154 149 148 147 149 152 158 159 158 156 155 153 149 145 137 125 91 111 114 109 127 108 86 67 59 53 49 45
199 189 178 174 166 167 167 162 154 151 152 153 154 157 154 150 147 148 157 154 161 162 164 166 168 169 166 166 173 179 158 175 165 177 177 213 129 130 48 46 43 34 32
194 187 177 170 169 167 168 158 153 150 150 154 156 153 153 155 155 160 161 163 163 166 170 177 183 186 169 188 191 194 203 207 205 209 208 223 206 199 259 326 342 336 334
187 177 181 172 170 170 164 163 160 156 154 155 158 163 160 157 160 157 163 165 169 172 181 190 204 203 207 206 212 211 212 220 226 222 218 225 233 240 240 268 304 309 309
261 182 173 176 173 173 166 163 166 159 159 158 159 161 159 159 164 168 169 173 176 184 194 200 213 224 230 220 224 230 232 235 234 233 241 245 251 263 264 256 266 283 283
246 205 184 180 177 174 172 167 162 164 163 165 160 163 164 164 166 171 174 177 185 192 203 215 218 224 226 227 233 235 239 247 251 255 263 270 270 276 279 279 273 268 269
205 228 188 186 180 177 176 173 169 166 167 169 172 174 170 168 170 174 180 184 192 199 209 217 221 220 225 234 238 239 243 249 255 257 256 269 280 286 288 303 283 279 271
198 232 190 185 183 178 177 179 183 179 176 178 182 186 181 180 178 180 186 197 203 201 201 211 218 217 226 240 247 249 250 254 253 256 263 274 280 292 294 296 297 291 282
205 227 194 185 182 180 172 173 185 187 188 179 180 183 191 195 194 194 200 206 210 208 208 215 215 223 234 238 242 241 245 255 265 269 274 282 286 288 293 300 294 288 281
196 199 197 190 184 187 179 185 186 185 191 192 177 178 185 198 207 207 209 208 206 212 220 222 220 226 231 234 232 237 252 271 273 278 278 282 286 292 295 295 295 284 280
189 188 187 211 193 192 187 190 198 196 183 191 187 176 180 191 210 224 228 224 210 209 220 229 224 223 226 225 230 245 258 261 271 279 282 283 292 295 306 307 306 301 292
183 191 192 204 209 188 193 190 187 190 186 189 188 183 191 209 215 224 226 237 234 236 231 223 226 225 227 226 243 249 247 262 274 279 280 287 291 305 311 314 316 313 299
189 195 193 211 205 220 220 221 225 213 198 202 193 204 198 202 213 226 223 224 248 271 255 240 227 235 231 226 237 258 263 254 347 241 297 282 287 287 298 312 318 317 306
205 216 207 211 215 209 215 210 208 197 185 192 182 181 175 198 226 261 253 248 285 262 240 232 241 262 250 204 190 260 268 259 326 287 275 286 277 275 287 299 310 317 306
208 226 226 223 220 236 232 234 217 227 206 208 225 235 253 277 276 257 263 252 253 245 242 200 203 185 71 66 352 351 299 288 304 302 321 283 269 279 284 291 305 297 288
202 202 208 206 228 244 244 247 258 261 272 276 281 271 261 257 260 263 265 265 238 212 219 220 218 192 196 228 255 260 266 255 240 243 279 271 281 268 278 283 283 281 280
208 187 198 210 220 223 238 238 247 241 246 238 248 243 246 251 233 240 243 238 232 220 208 214 213 207 219 226 221 234 228 228 225 229 241 265 271 288 271 283 278 278 274
Height
778 782 785 789 793 795 798 800 801 801 803 805 808 810 813 815 817 818 820 822 823 824 825 826 827 829 829 829 829 829 830 830 830 830 830 830 830 830 830 829 830 829 827
777 782 785 788 792 795 797 800 801 802 803 805 808 810 813 816 818 820 822 824 825 827 827 828 829 830 831 831 831 831 831 832 832 832 832 832 832 832 832 831 830 830 829
776 782 786 788 791 794 797 799 801 802 804 806 808 810 812 815 818 821 824 825 827 829 830 831 832 832 833 833 833 833 833 833 834 834 834 835 835 834 834 833 832 832 831
777 781 786 788 791 793 796 799 802 803 804 807 808 811 813 816 819 821 824 827 829 830 832 833 833 833 834 835 835 835 835 835 835 836 837 837 836 835 836 835 834 834 834
778 781 785 788 791 794 795 798 801 803 804 806 809 811 814 817 820 823 825 828 830 832 833 834 835 835 836 836 836 837 837 837 837 839 838 838 838 837 837 837 837 835 834
778 781 784 787 791 794 796 798 800 803 805 807 810 812 815 818 821 823 826 828 830 833 834 835 836 837 837 837 838 838 838 838 840 840 841 841 841 840 839 839 838 837 836
779 781 784 787 789 793 796 798 800 803 805 808 810 813 816 819 822 824 827 829 831 833 835 836 836 838 839 840 840 840 840 840 842 842 842 843 842 841 841 840 839 838 838
780 783 786 787 789 792 796 799 801 803 806 808 811 813 817 820 823 824 827 830 833 834 835 836 838 838 840 840 841 841 841 841 843 843 844 844 843 843 843 842 841 840 839
781 784 786 788 789 792 796 799 801 803 806 809 812 815 817 822 824 826 828 830 832 834 835 837 838 839 839 840 841 842 842 842 844 844 844 845 844 844 844 843 842 841 840
785 787 787 788 791 794 798 799 802 804 807 810 813 816 819 822 825 828 830 832 833 834 835 836 838 838 839 840 841 842 842 843 844 844 845 845 844 844 844 844 843 842 842
786 787 788 789 790 793 797 800 803 805 808 811 814 817 820 823 826 829 832 833 834 835 836 837 838 839 840 841 841 842 842 843 843 843 844 843 843 844 844 843 843 842 841
779 785 786 788 791 792 794 799 803 807 810 813 815 818 820 823 826 830 832 833 835 836 837 839 839 840 841 842 842 842 843 843 843 843 843 842 842 843 843 843 842 842 841
769 781 785 788 790 792 792 797 801 805 810 813 815 818 819 822 826 829 831 834 835 836 839 840 840 841 842 842 842 842 842 842 843 842 842 841 842 842 842 843 843 842 841
773 776 778 787 789 789 791 795 799 803 809 812 814 817 819 821 825 828 830 833 834 836 837 838 840 841 841 841 842 842 842 842 842 841 841 840 840 841 841 841 841 841 840
774 775 778 785 786 787 790 794 798 801 807 811 813 815 818 819 823 827 829 831 833 834 836 837 837 838 839 840 840 840 841 841 841 841 841 840 840 840 839 840 840 839 838
765 770 773 785 784 787 788 792 796 800 805 810 812 814 816 818 821 825 828 829 831 832 834 835 836 836 838 839 839 839 839 839 839 839 839 839 838 838 837 837 836 837 836
761 771 772 780 785 786 788 791 795 797 802 806 809 813 814 816 819 822 826 828 829 830 832 834 834 835 835 837 837 838 838 838 838 838 837 837 837 836 836 834 835 834 833
767 772 775 778 781 784 786 789 796 799 803 801 806 810 812 815 818 821 823 825 828 829 830 832 832 833 834 835 836 835 836 836 837 836 836 835 836 835 833 832 831 830 829
765 771 774 778 778 784 783 788 795 799 802 804 802 804 807 812 817 819 820 822 825 827 828 830 830 831 831 833 833 833 834 834 835 834 833 833 833 833 833 830 827 826 826
764 769 775 776 778 782 786 790 795 798 799 802 804 804 806 809 815 818 820 820 822 823 825 828 827 828 829 829 831 831 831 831 831 831 830 831 830 829 830 827 825 825 824
761 765 772 775 778 781 782 787 794 795 794 799 801 803 804 807 810 814 816 819 820 821 822 822 824 825 825 827 829 828 827 827 828 828 828 828 828 827 827 826 824 823 822
760 767 771 771 772 776 781 786 786 788 792 797 798 801 801 804 806 809 813 814 814 817 820 821 821 822 822 824 826 827 823 824 824 826 827 826 826 825 824 824 823 821 820
758 765 765 769 773 779 782 785 788 791 791 796 795 799 798 802 803 806 807 807 809 811 815 818 820 820 822 823 825 824 824 822 823 822 824 825 825 823 823 821 821 820 820
758 760 765 770 771 778 781 781 783 785 788 792 791 793 794 793 798 800 801 804 803 802 812 810 813 816 819 821 823 824 826 828 824 822 822 825 823 822 821 821 820 818 817
757 759 760 767 769 772 775 777 779 781 779 781 787 787 787 790 793 797 799 802 799 802 807 807 809 811 813 816 818 820 820 822 823 823 821 821 821 819 818 817 817 817 816
752 757 760 764 768 769 769 772 777 777 777 780 784 782 783 785 790 791 794 797 797 799 800 803 806 806 806 810 811 813 817 819 818 819 820 819 819 817 816 816 814 814 813